TimeMST,TemperatureF,Dew PointF,Humidity,Sea Level PressureIn,VisibilityMPH,Wind Direction,Wind SpeedMPH,Gust SpeedMPH,PrecipitationIn,Events,Conditions,WindDirDegrees,DateUTC
12:53 AM,35.1,24.1,64,29.98,10.0,South,8.1,-,N/A,,Mostly Cloudy,170,2013-03-08 07:53:00
1:53 AM,34.0,26.1,73,29.96,10.0,Calm,Calm,-,N/A,,Overcast,0,2013-03-08 08:53:00
2:53 AM,33.1,25.0,72,29.95,10.0,Calm,Calm,-,N/A,,Overcast,0,2013-03-08 09:53:00
3:53 AM,33.1,26.1,75,29.95,10.0,SE,5.8,-,N/A,,Overcast,140,2013-03-08 10:53:00
4:53 AM,32.0,26.1,79,29.93,10.0,South,4.6,-,N/A,,Overcast,190,2013-03-08 11:53:00
5:53 AM,28.9,25.0,85,29.95,10.0,SW,5.8,-,N/A,,Scattered Clouds,220,2013-03-08 12:53:00
6:53 AM,30.0,26.1,85,29.95,10.0,SSW,5.8,-,N/A,,Partly Cloudy,200,2013-03-08 13:53:00
7:53 AM,33.1,26.1,75,29.96,10.0,Calm,Calm,-,N/A,,Mostly Cloudy,0,2013-03-08 14:53:00
8:53 AM,34.0,26.1,73,29.96,10.0,Calm,Calm,-,N/A,,Partly Cloudy,0,2013-03-08 15:53:00
9:53 AM,36.0,24.1,62,29.94,10.0,NE,4.6,-,N/A,,Partly Cloudy,40,2013-03-08 16:53:00
10:53 AM,39.0,26.1,60,29.92,10.0,NE,5.8,-,N/A,,Mostly Cloudy,50,2013-03-08 17:53:00
11:53 AM,41.0,25.0,53,29.89,10.0,NE,4.6,-,N/A,,Clear,50,2013-03-08 18:53:00
12:53 PM,44.1,26.1,49,29.84,10.0,ENE,4.6,-,N/A,,Clear,60,2013-03-08 19:53:00
1:53 PM,45.0,26.1,48,29.81,10.0,Variable,3.5,-,N/A,,Clear,0,2013-03-08 20:53:00
2:53 PM,48.0,28.9,48,29.79,10.0,NNE,5.8,-,N/A,,Clear,30,2013-03-08 21:53:00
3:53 PM,48.0,30.0,50,29.78,10.0,NE,5.8,-,N/A,,Clear,40,2013-03-08 22:53:00
4:53 PM,46.9,32.0,56,29.78,10.0,NNE,4.6,-,N/A,,Clear,30,2013-03-08 23:53:00
5:53 PM,43.0,33.1,68,29.82,10.0,North,3.5,-,N/A,,Clear,10,2013-03-09 00:53:00
6:53 PM,42.1,30.0,62,29.83,10.0,North,4.6,-,N/A,,Clear,360,2013-03-09 01:53:00
7:53 PM,39.9,27.0,60,29.85,10.0,North,6.9,-,N/A,,Clear,350,2013-03-09 02:53:00
8:53 PM,39.0,27.0,62,29.85,10.0,NNW,9.2,-,N/A,,Clear,340,2013-03-09 03:53:00
9:53 PM,37.9,27.0,65,29.87,10.0,NW,4.6,-,N/A,,Partly Cloudy,310,2013-03-09 04:53:00
10:53 PM,35.1,27.0,72,29.87,10.0,West,5.8,-,N/A,,Scattered Clouds,270,2013-03-09 05:53:00
11:53 PM,36.0,28.0,73,29.86,10.0,Calm,Calm,-,N/A,,Overcast,0,2013-03-09 06:53:00